PROFILE

 METAR AND TAF INFORMATION
ADDS - METARS form results

(0547 UTC 22 September 2019)
http://aviationweather.gov/metar/data/
 
EIDW 220530Z 11004KT 080V150 5000 -RA SCT004 BKN012 BKN040 15/15 Q0998 TEMPO 4000 BKN010
EIDW 220500Z 12004KT 100V170 7000 -DZ SCT004 BKN014 BKN060 16/15 Q0998 TEMPO 4000 BKN010
TAF EIDW 220500Z 2206/2306 14005KT 9999 -DZ SCT004 BKN014 TEMPO 2206/2210 4000 -RA BKN008 BECMG 2210/2211 20004KT BKN020 BECMG 2214/2217 27008KT PROB30 TEMPO 2214/2218 -SHRA SCT018CB BECMG 2300/2302 24004KT 

 AIRPORT MAP

 RUNWAY INFORMATION
Runway 10 Runway length 8652 ft Runway width 148 ft
Runway elevation 242 ft Runway displaced threshold 0 ft Runway heading 95
Runway 28 Runway length 8652 ft Runway width 148 ft
Runway elevation 202 ft Runway displaced threshold 0 ft Runway heading 275
Runway 11 Runway length 4393 ft Runway width 200 ft
Runway elevation 217 ft Runway displaced threshold 279 ft Runway heading 105
Runway 29 Runway length 4393 ft Runway width 200 ft
Runway elevation 216 ft Runway displaced threshold 0 ft Runway heading 285
Runway 16 Runway length 6798 ft Runway width 200 ft
Runway elevation 217 ft Runway displaced threshold 0 ft Runway heading 157
Runway 34 Runway length 6798 ft Runway width 200 ft
Runway elevation 202 ft Runway displaced threshold 0 ft Runway heading 337

 AIRPORT FREQUENCIES
Type APP Name APP Frequency 121.1 MHZ
Type ATIS Name ATIS Frequency 124.525 MHZ
Type CLD Name CLNC DEL Frequency 121.875 MHZ
Type GND Name GND Frequency 121.8 MHZ
Type INFO Name FIS Frequency 118.5 MHZ
Type TWR Name TWR Frequency 118.6 MHZ

 AIRPORT NEAR NAVIGATION AIDS
Type VOR-DME Name Dublin Frequency 111200 KHZ
Type VOR-DME Name Dublin Frequency 114900 KHZ
Type NDB Name Garristown Frequency 407 KHZ
Type NDB-DME Name Gormanston Frequency 334 KHZ
Type DME Name Dublin Frequency 108900 KHZ
Type NDB Name Killiney Frequency 378 KHZ
Type NDB Name Rush Frequency 326 KHZ